www.pogodaiklimat.ru

Погода и климат >> Архив погоды >> Канада >> Borden


ПОГОДА в Borden

  • Прогноз погоды в Borden
  • Монитор погоды в Borden
  • Климат города

АРХИВ ПОГОДЫ в Borden

Время (UTC), дата Ветер
(напр.,м/с)
 
Видим.   Явления Облачность Т
(С)
Тd
(С)
f
(%)
Тe
(С)
Тes
(С)
Комфортность P
(гПа)
Po
(гПа)
Тmin
(С)
Tmax
(С)
R
(мм)
R24
(мм)
S
(см)
12 12.12 штиль 0 6000 м 10/10 200 м
[]
-2.8 -3.6 94 -4 -4 1020.4 992.8 -3.2
15 12.12 В 2 9000 м 10/10 200 м
[]
-2.4 -3.6 91 -7 -7 1020.5 992.9
18 12.12 ЮВ 3 14 км 10/10 300 м
[]
-1.6 -3.9 84 -7 -7 1019.3 991.7 -3.2 -1.4
21 12.12 ЮВ 5 14 км {осадки} 10/10 300 м
[]
-0.7 -3.3 83 -7 -7 1018.6 991.0 0.5
00 13.12 ЮВ 7 14 км {осадки} 10/10 300 м
[]
-1.0 -3.3 84 -8 -8 1018.6 991.0 -3.2 -0.7 0.5
03 13.12 ЮВ 6 14 км 10/10 300 м
[]
-1.5 -3.4 87 -8 -8 1018.9 991.3
09 13.12 В 3 14 км 10/10 300 м
[]
-4.0 -5.2 91 -9 -9 1020.0 992.3
12 13.12 В 3 12 км 10/10 200 м
[]
-3.6 -4.9 91 -9 -9 1021.7 994.0
15 13.12 ЮВ 2 4800 м 10/10 100 м
[]
-3.3 -3.9 96 -7 -7 1024.0 996.2
18 13.12 Ю 1 2200 м 10/10 50 м
[]
-2.1 -2.4 98 -5 -5 1024.1 996.3 -1.8
21 13.12 ЮВ 3 2500 м слаб. снег 10/10 100 м
[]
-1.1 -1.4 98 -6 -6 1025.3 997.5
00 14.12 ЮЗ 1 2200 м 10/10 300 м
[]
-1.6 -1.9 98 -4 -4 1026.0 998.2 -4.2 -1.0
03 14.12 Ю 1 600 м 10/10 300 м
[]
-2.2 -2.7 96 -5 -5 1025.5 997.7
06 14.12 ЮВ 3 1100 м 10/10 <50 м
[]
+0.6 +0.4 99 -4 -4 1024.1 996.4 -4.2 +0.6
09 14.12 Ю 2 900 м 10/10 <50 м
[]
+0.7 +0.7 100 -3 -3 1023.8 996.2 0.5
12 14.12 ЮВ 3 3300 м слаб. дождь 10/10 1000 м
[]
+0.8 +0.7 99 -4 -4 1023.8 996.2 -2.3 +0.6 0.5
15 14.12 Ю 2 2200 м слаб. дождь {осадки} 10/10 600 м
[]
+1.0 +1.0 100 -2 -2 1024.3 996.6 2
18 14.12 ЮВ 1 4000 м слаб. дождь {осадки} 10/10 100 м
[]
+2.2 +2.2 100 0 0 1020.4 993.0 -2.3 +2.5 3
21 14.12 штиль 0 600 м 10/10 200 м
[]
+2.0 +2.0 100 +1 +1 1021.0 993.5
00 15.12 Ю 2 3200 м 10/10 100 м
[]
+2.0 +2.0 100 -2 -2 1021.6 994.1
03 15.12 ЮЗ 3 8000 м ясно +1.3 +1.2 99 -3 -3 1020.7 993.2
06 15.12 С 1 300 м ясно -2.4 -2.4 100 -5 -5 1021.4 993.8
09 15.12 штиль 0 100 м 10/10 <50 м
[]
-3.7 -4.0 98 -5 -5 1022.9 995.3
12 15.12 Ю 1 4000 м 10/10 300 м
[]
-3.5 -4.1 96 -6 -6 1024.9 997.2 -5.8
15 15.12 штиль 0 6000 м 9/9 200 м
[]
-0.7 -0.8 99 -2 -2 1025.2 997.6
18 15.12 СВ 1 11 км 9/9 100 м
[]
+2.0 +1.5 96 0 0 1023.6 996.0 +2.0
21 15.12 С 2 12 км ясно +0.9 +0.3 96 -2 -2 1024.5 996.8
00 16.12 штиль 0 300 м ясно -3.6 -3.6 100 -5 -5 1025.5 997.6 -5.8 +2.1
03 16.12 Ю 1 300 м 5/0
[]
-3.4 -3.4 100 -6 -6 1024.7 996.9
06 16.12 штиль 0 1700 м ясно -4.3 -4.3 100 -6 -6 1022.3 994.7 -5.8 +2.1
09 16.12 штиль 0 300 м 10/10 <50 м
[]
-8.4 -8.5 99 -9 -9 1021.4 993.6
12 16.12 штиль 0 14 км ясно -7.1 -7.8 95 -8 -8 1021.0 993.1 -9.0 +2.1
15 16.12 штиль 0 9000 м ясно -2.7 -2.7 100 -4 -2 1020.3 992.6
18 16.12 Ю 3 14 км ясно +0.5 -0.9 90 -4 -2 1016.3 988.8 -9.7 +0.7
21 16.12 Ю 3 14 км ясно +0.9 -0.7 89 -4 -4 1015.6 988.0
00 17.12 Ю 2 4000 м ясно -3.3 -3.6 98 -8 -8 1014.1 986.4 -9.7 +1.6
03 17.12 Ю 3 4800 м ясно -3.4 -3.4 100 -8 -8 1011.9 984.4
06 17.12 штиль 0 9000 м ясно -3.7 -4.3 96 -5 -5 1009.6 982.3 -9.7 +1.6
09 17.12 ЮЗ 2 14 км ясно -1.5 -2.1 96 -5 -5 1008.7 981.5
12 17.12 СЗ 4 14 км 10/10 1000 м
[]
+2.0 -1.1 80 -3 -3 1008.9 981.6 -4.9 +1.6
15 17.12 СЗ 5 14 км 10/10 600 м
[]
+2.0 -3.4 67 -3 -3 1011.0 983.7 3
18 17.12 З 6 14 км слаб. снег {осадки} 10/10 600 м
[]
+1.1 -4.2 68 -5 -5 1011.6 984.2 -4.9 +2.2 3
21 17.12 СЗ 6 14 км 10/10 600 м
[]
+0.8 -4.8 66 -5 -5 1013.6 986.2 0.5
00 18.12 С 5 14 км {осадки} 10/10 600 м
[]
-0.7 -5.7 69 -7 -7 1016.8 989.4 -4.2 +2.2 0.5
03 18.12 С 4 14 км 10/10 600 м
[]
-1.7 -5.5 75 -7 -7 1018.1 990.6
06 18.12 С 4 14 км 10/10 600 м
[]
-3.6 -7.5 74 -9 -9 1019.4 991.8 -4.2 +2.2 200
09 18.12 С 3 4000 м слаб. снег 10/10 300 м
[]
-5.5 -7.2 88 -11 -11 1021.7 994.0
12 18.12 С 2 14 км 10/10 600 м
[]
-6.8 -11.0 72 -10 -10 1023.8 996.0 -7.0 +2.2
15 18.12 С 2 14 км 10/10 600 м
[]
-6.6 -11.1 70 -10 -10 1025.2 997.3
18 18.12 С 3 14 км 5/5 600 м
[]
-4.5 -9.2 70 -10 -9 1023.7 995.8 -7.0 -3.6
21 18.12 СВ 2 14 км ясно -4.2 -8.4 72 -7 -7 1023.0 995.1
00 19.12 штиль 0 14 км ясно -10.3 -11.0 95 -11 -11 1022.3 994.2 -10.4 -2.2
03 19.12 Ю 1 14 км ясно -10.5 -11.6 92 -13 -13 1020.3 992.3
06 19.12 Ю 4 14 км ясно -2.7 -5.6 80 -8 -8 1017.2 989.5 -12.4 -2.2

 

Местоположение метеостанции Borden (Канада): широта 44.25 долгота -79.91 высота над уровнем моря 223 м.

В архиве по умолчанию представлена погода в Borden за последнюю неделю. Архивные данные за месяц целиком и за предыдущие месяцы, начиная с января 2011 года, Вы можете получить, выбрав интересующий диапазон дат из раскрывающегося списка и нажав кнопку "Ввод!".


*Определитесь, кто Вы:
робот инопланетянин человек

Внимание! Время в таблицах - всемирное. Для получения местного времени необходимо прибавить поправку, которая в Borden равна -5 ч.

Смотрите также архив погоды в соседних городах и на ближайших метеорологических станциях:

Погода в Egbert (Канада) (11 км)
Погода в Barrie (Канада) (18 км)
Погода в Collingwood (Канада) (37 км)
Погода в Barrie-oro (Канада) (38 км)
Погода в Toronto Buttonville (Канада) (61 км)
Погода в Buttonville (Канада) (61 км)
Погода в Toronto Aes Hq (Канада) (63 км)
Погода в Lagoon City (Канада) (64 км)
Погода в Beausoleil Isl (aut) (Канада) (67 км)
Погода в Toronto (Канада) (68 км)

Пояснения к столбцам:

Ветер - указаны скорость ветра в м/с - средняя за 10 мин, порывы в срок и между сроками (в фигурных скобках) и направление, откуда дует ветер: С - северный, СВ - северо-восточный, В - восточный, ЮВ - юго-восточный, Ю - южный, ЮЗ - юго-западный, З - западный, СЗ - северо-западный.
Видимость - горизонтальная дальность видимости в метрах или километрах. При видимости от 1 до 10 км при отсутствии осадков обычно наблюдается дымка, при ухудшении видимости до 1 км и менее - туман. В сухую погоду видимость может ухудшаться дымом, пылью или мглою.
Явления - указаны атмосферные явления, наблюдавшиеся в срок или в последний час перед сроком; фигурными скобками обозначены явления, наблюдавшиеся между сроками (за 1-3 часа до срока); квадратными скобками обозначены град или гололедные отложения с указанием их диаметра в мм.
Облачность - указаны через наклонную черту общая и нижняя облачность в баллах и высота нижней границы облаков в метрах; квадратными скобками обозначены формы облаков: Ci - перистые, Cs - перисто-слоистые, Cc - перисто-кучевые, Ac - высококучевые, As - высокослоистые, Sc - слоисто-кучевые, Ns - слоисто-дождевые, Cu - кучевые, Cb - кучево-дождевые. Подробнее классификацию облаков см. в Атласе облаков (PDF).
T - Температура воздуха - температура, измеренная на высоте 2 м над землей.
Td - Температура точки росы - температура, при понижении до которой содержащийся в воздухе водяной пар достигнет насыщения.
f - Относительная влажность воздуха - влажноcть воздуха, измеренная на высоте 2 м над землей.
Te - Эффективная температура - температура, которую ощущает одетый по сезону человек в тени. Характеристика душности погоды. При расчете учитывается влияние влажности воздуха и скорости ветра на теплоощущения человека.
Tes - Эффективная температура на солнце - температура, которую ощущает человек, с поправкой на солнечный нагрев. Характеристика знойности погоды. Зависит от высоты солнца над горизонтом, облачности и скорости ветра. Ночью, в пасмурную погоду, а также при ветре 12 м/с и более поправка равна нулю.
P - Атмосферное давление - приведенное к уровню моря атмосферное давление.
Po - Атмосферное давление - измеренное на уровне метеостанции атмосферное давление.
Tmin - Минимальная температура - минимум температуры воздуха на высоте 2 м над землей.
Tmax - Максимальная температура - максимум температуры воздуха на высоте 2 м над землей.
R - Количество осадков - Количество выпавших осадков за период времени, мм. При наведении курсора мыши на число - период времени, за который выпало указанное количество осадков.
R24 - Количество осадков - Количество выпавших осадков за 24 часа, мм.
S - Снежный покров - Высота снежного покрова, см. При наведении курсора мыши на число - состояние снежного покрова и степень покрытия местности в баллах.